Wind_Gust
7 6 3 5 3 2 3 5 5 4 4 2 3 4 3 2 1 1 1 2 1 2 3 5 5 5 6 7 2 5 4 6 9 7 7 8 9 11 15 14 13 13 15 14 15 15 13 14 13 12 13 12 11 9 9 9 11 13 14 13 11 11 11 11 11 11 11 11 11 11 11 11 12 12 11 12 12 11 11 12 12 11 11 11 12
6 6 6 5 3 2 3 4 4 3 3 5 2 3 3 3 2 1 2 1 1 2 2 5 6 6 8 6 1 6 8 8 9 10 9 9 10 10 15 14 13 13 12 14 15 15 14 14 13 13 13 13 13 12 11 9 9 13 13 13 12 11 11 11 11 12 12 12 11 10 11 11 11 11 11 11 11 11 11 12 11 11 11 11 11
4 5 4 5 3 3 4 1 1 2 2 3 2 3 3 3 1 1 2 3 2 2 2 4 4 7 5 5 7 2 8 9 6 7 9 10 9 8 13 16 13 13 12 12 11 13 15 15 15 14 13 14 13 13 12 11 10 11 11 15 14 13 12 12 11 11 12 12 12 12 11 11 11 11 12 11 11 11 11 11 11 11 10 10 11
5 4 5 5 3 1 1 2 1 2 3 4 4 3 4 3 2 1 1 1 1 2 1 2 4 6 4 7 6 3 5 9 9 7 5 6 7 7 7 11 13 12 13 13 11 11 15 15 15 15 14 14 14 14 13 13 12 11 11 14 14 13 13 13 12 12 12 12 13 13 13 12 12 12 12 11 11 11 11 11 11 11 10 10 10
6 6 6 4 3 3 2 4 4 3 3 5 5 5 4 3 2 1 2 2 2 3 2 2 2 4 5 5 6 5 2 8 9 9 7 4 3 3 2 2 3 8 11 13 12 11 11 14 14 15 15 14 14 14 14 14 13 13 11 13 14 13 13 12 13 13 13 12 12 13 13 13 13 13 12 12 12 11 11 10 10 10 9 9 10
6 6 6 6 3 4 4 5 5 4 4 5 6 5 5 4 2 1 3 2 3 3 2 2 2 4 6 5 5 4 3 6 8 10 9 9 6 3 3 2 2 2 4 10 10 8 7 10 12 14 14 14 14 14 15 15 14 13 13 14 14 13 13 12 12 13 13 13 13 13 13 13 13 13 13 12 12 12 11 11 11 10 10 9 9
8 10 10 10 7 4 3 4 3 3 5 2 5 3 5 5 4 3 2 4 4 7 6 5 3 5 5 5 5 5 6 4 2 7 11 9 7 5 4 3 2 1 1 2 7 9 7 9 11 12 14 14 14 15 14 14 15 14 14 14 13 13 13 13 12 12 13 13 12 13 13 13 14 14 13 13 12 12 11 11 11 10 10 9 9
11 11 11 9 8 6 5 5 5 3 3 1 3 4 5 5 4 4 2 4 4 6 6 6 4 5 4 5 5 4 7 7 5 2 3 8 7 6 6 6 4 4 5 2 2 4 7 8 8 10 11 14 14 14 16 15 15 15 15 15 13 13 12 15 13 13 12 12 13 13 13 13 13 13 14 13 13 13 12 11 11 11 11 10 9
5 6 7 7 5 2 5 6 6 4 4 3 4 3 3 4 2 4 4 5 4 4 4 3 4 5 4 4 3 4 8 8 7 4 5 5 5 5 6 6 6 8 5 5 3 4 5 7 8 9 9 12 12 14 16 16 16 16 15 15 14 14 13 16 15 14 14 13 13 13 13 13 13 13 13 14 13 13 12 12 11 11 11 11 10
3 3 5 6 7 7 5 5 5 4 6 4 2 1 1 2 5 5 4 4 3 4 4 4 3 3 3 5 4 5 5 6 7 6 7 5 3 4 5 5 6 9 10 8 8 7 5 6 8 9 9 10 11 15 16 16 16 16 16 16 15 15 15 15 15 14 14 14 14 13 13 12 12 13 13 14 14 14 13 13 12 12 12 11 11
4 4 6 6 7 6 6 5 4 5 6 4 3 2 3 2 3 5 6 3 3 1 4 4 4 2 3 3 5 5 3 4 4 7 6 4 4 2 3 1 4 5 8 9 9 8 8 7 7 5 7 9 10 11 15 14 15 16 17 17 17 16 17 17 17 14 17 16 15 14 13 13 13 13 14 14 14 15 14 14 14 13 12 12 11
5 3 3 4 4 4 4 3 3 4 5 5 5 5 5 5 3 5 5 3 3 3 4 5 3 5 2 1 2 5 6 3 3 2 2 2 3 2 3 1 2 3 6 7 8 8 8 7 8 8 7 8 10 9 12 12 10 12 17 18 18 17 17 18 17 17 17 19 17 15 14 14 14 14 15 15 15 15 15 14 14 14 13 13 12
4 2 2 5 4 3 5 5 5 5 4 5 5 5 4 4 3 3 4 3 2 2 3 4 6 5 4 3 2 3 5 6 4 2 1 2 2 1 1 2 2 3 5 6 7 8 10 11 11 9 9 8 8 8 9 11 11 9 14 16 18 18 18 18 19 19 17 20 18 17 16 15 15 15 15 16 16 16 16 15 15 14 14 13 13
2 2 4 6 6 5 7 7 6 4 5 4 3 4 3 2 4 3 2 3 5 4 4 4 2 8 5 3 4 8 3 5 5 3 2 2 2 2 3 1 2 1 3 6 5 5 7 9 9 10 10 10 9 7 8 9 11 11 10 13 18 18 17 18 19 19 18 17 17 19 17 17 16 16 16 16 17 16 16 16 16 15 15 15 15
4 4 4 6 6 6 5 6 7 6 5 3 2 4 5 6 5 5 3 4 3 4 4 2 6 3 5 6 6 4 4 5 4 6 5 2 3 3 3 3 4 3 3 4 4 6 8 8 8 9 9 10 11 10 10 9 10 11 12 12 15 16 18 18 19 19 19 18 17 18 17 19 18 17 17 18 17 17 17 16 16 16 16 16 16
3 5 6 7 6 6 5 4 5 5 7 6 4 5 4 4 5 4 6 5 4 2 1 3 4 8 4 4 4 5 4 3 3 5 5 2 3 2 2 3 3 2 4 7 3 2 6 8 10 10 10 10 10 11 12 12 14 14 15 14 15 14 19 19 21 21 20 19 19 20 18 21 20 19 19 19 18 18 18 17 17 16 17 17 17
5 6 7 8 6 6 7 5 5 3 5 6 6 5 5 4 5 5 4 5 3 3 5 4 4 2 7 7 5 4 7 3 2 3 5 3 5 5 2 1 1 2 1 2 3 7 6 5 4 5 6 7 7 9 11 13 13 14 16 16 16 15 18 21 22 23 23 22 23 23 21 21 22 20 19 18 17 17 18 18 17 17 17 17 17
6 6 6 7 8 6 6 7 5 4 4 4 3 4 2 2 4 6 5 3 7 4 4 6 6 7 5 4 6 6 4 3 2 5 4 2 5 4 4 4 3 3 3 2 3 6 8 18 9 4 5 5 6 6 9 11 12 12 13 16 17 17 17 17 22 24 23 23 23 24 24 23 22 19 19 17 17 17 18 18 18 19 19 18 18
6 6 7 7 7 7 7 7 6 6 4 4 5 3 4 3 3 5 4 7 7 6 6 3 4 7 7 7 6 3 3 4 3 3 4 6 3 5 2 4 3 4 4 5 7 7 8 9 16 15 13 13 12 10 8 6 8 10 12 18 16 18 18 17 16 20 23 23 23 23 24 22 20 19 20 19 19 19 20 19 20 20 20 20 19
8 7 7 8 9 8 8 7 7 4 5 6 5 2 6 6 5 5 5 5 9 11 7 4 6 4 6 7 6 7 6 8 4 3 6 5 5 5 4 5 6 6 6 6 7 8 7 9 11 14 13 16 13 12 12 5 3 5 9 17 18 16 16 18 16 18 20 18 23 24 23 21 19 20 22 20 20 20 21 22 22 21 21 21 20
6 8 6 7 8 9 7 7 7 6 6 7 5 6 7 7 6 9 8 8 6 5 8 7 6 5 6 5 7 7 5 5 5 5 5 5 1 2 6 7 5 6 8 6 6 5 5 7 5 10 11 11 12 10 12 9 8 10 6 8 10 10 12 13 16 17 18 17 15 18 21 20 22 22 21 23 19 19 21 22 21 22 22 21 21
5 6 8 7 8 8 8 7 6 5 7 6 6 7 6 8 6 6 6 9 5 6 8 6 6 5 5 7 6 5 7 7 7 5 6 5 6 2 2 5 7 5 9 13 10 6 5 4 7 7 5 7 7 4 6 7 9 9 10 10 7 6 9 13 15 15 16 16 9 13 15 17 21 23 22 21 24 24 24 24 24 24 24 23 23
4 6 7 8 7 6 7 5 4 5 6 6 7 7 6 7 7 8 9 9 8 9 9 8 8 10 7 8 8 7 5 5 2 5 5 4 4 5 4 3 1 5 12 8 11 9 8 8 9 11 8 7 8 4 5 8 6 8 10 10 9 9 9 12 14 14 11 7 14 15 17 21 21 20 20 16 17 22 25 25 25 25 24 25 27
3 6 7 7 8 6 5 4 5 5 6 5 5 6 5 7 9 9 8 7 7 10 9 10 9 10 8 7 8 7 8 7 3 4 6 3 5 3 4 6 4 4 5 7 8 13 11 12 11 10 10 10 11 11 8 7 9 10 11 10 11 12 13 13 15 15 9 12 9 14 15 20 18 16 18 19 22 24 24 26 26 25 25 27 29
4 7 4 6 8 8 6 6 5 5 5 6 5 6 7 8 8 8 8 9 8 9 11 7 8 11 9 6 8 9 8 4 6 7 7 7 7 6 3 3 4 4 5 5 9 4 9 11 8 9 10 11 11 11 10 10 10 11 10 8 9 10 12 11 9 11 12 8 7 11 11 11 14 20 23 22 21 20 19 17 16 17 20 20 21
6 7 7 5 6 6 6 5 4 4 4 5 5 5 6 8 6 8 7 5 7 9 9 7 8 5 5 11 9 9 8 7 6 8 6 7 8 3 2 5 4 4 4 8 6 8 7 6 7 9 12 11 10 9 9 10 13 15 16 11 11 11 10 14 15 9 8 6 7 7 8 9 9 10 12 15 14 12 14 18 19 17 16 19 20
8 3 2 3 5 6 6 7 5 5 5 5 5 6 6 7 6 6 6 6 8 9 7 8 10 8 7 8 9 9 7 6 8 7 6 5 6 3 4 3 4 7 7 5 5 8 3 4 6 13 13 12 13 13 13 12 13 17 14 11 9 8 6 5 10 11 9 8 6 6 7 8 10 10 11 12 13 12 10 12 14 16 18 20 22
4 2 1 2 4 4 4 6 5 5 5 6 5 6 6 9 6 6 6 4 9 8 6 9 8 7 6 5 10 6 5 6 7 6 8 6 7 5 8 8 8 4 6 8 9 5 4 9 4 9 14 13 12 11 12 15 17 16 14 14 13 12 15 17 15 13 12 11 11 10 10 8 9 10 10 12 13 13 13 12 13 14 16 18 19
7 3 2 1 2 4 4 4 4 6 6 5 5 4 5 7 8 6 6 5 8 6 6 9 5 6 7 6 7 7 5 4 6 6 5 6 6 6 5 9 7 9 5 6 5 5 7 9 11 8 12 12 13 11 14 13 14 15 12 12 12 11 14 16 15 14 15 14 12 12 12 12 11 11 12 13 13 14 14 14 12 11 12 14 17
6 4 4 3 3 4 4 4 4 5 6 6 6 6 5 6 6 6 5 5 7 5 6 8 5 6 6 6 6 9 4 8 7 4 6 6 8 8 9 6 6 10 4 5 5 3 5 6 9 12 10 12 11 11 10 11 12 15 12 11 11 11 13 13 15 15 16 16 15 13 12 12 12 11 11 12 13 13 14 14 13 12 12 12 13
5 4 4 4 4 4 3 4 3 4 4 6 6 6 5 6 4 7 4 5 6 6 2 6 5 7 7 6 5 7 6 8 8 9 8 10 9 9 9 10 11 6 6 4 5 6 3 7 7 5 9 9 9 8 11 11 13 15 12 11 11 14 14 13 17 17 18 18 17 16 14 12 12 13 11 12 13 14 14 14 14 14 13 12 13
5 4 5 6 7 7 6 6 5 3 3 3 5 6 4 4 5 5 4 6 6 6 4 3 5 6 6 7 5 6 4 8 9 8 9 8 8 12 10 12 10 8 7 6 6 6 5 3 7 7 9 12 9 13 12 12 14 14 11 12 14 12 14 13 14 18 20 21 21 19 18 17 15 14 13 12 12 13 13 14 14 14 13 13 13
7 6 5 7 7 9 8 7 7 7 6 6 5 5 6 4 4 5 5 6 7 6 6 4 3 5 5 6 4 3 3 9 6 8 9 7 9 10 9 10 11 10 9 8 10 8 7 2 5 10 9 10 13 11 13 13 14 15 11 10 12 12 13 14 13 13 21 21 21 21 21 21 21 19 18 17 15 14 13 12 13 13 13 13 14
9 9 9 8 6 6 6 8 8 8 8 7 6 5 6 6 5 4 6 5 5 6 4 6 5 5 7 7 4 3 4 8 6 7 7 8 8 11 9 10 10 10 7 12 7 6 10 8 9 6 10 9 9 11 14 16 15 12 12 12 12 10 12 12 14 13 19 20 20 21 21 22 21 20 20 19 17 16 15 13 12 12 12 13 13
2 3 7 8 10 9 8 8 8 7 9 9 6 6 7 7 8 6 7 7 7 7 7 7 7 6 6 6 6 5 5 7 6 6 6 7 7 10 7 7 9 6 6 6 9 8 8 11 5 12 12 12 10 14 11 11 10 9 11 12 12 10 11 11 12 11 15 18 19 20 21 21 21 20 20 20 19 18 17 16 14 12 11 11 11
4 3 6 6 7 6 9 10 10 10 9 9 7 8 9 9 9 8 7 7 7 8 9 8 6 7 8 6 6 6 5 8 5 6 5 6 8 8 8 6 9 8 6 7 7 5 3 8 8 10 9 11 9 8 12 13 14 13 11 11 9 11 11 13 11 11 12 14 15 17 18 18 19 19 19 20 19 18 18 18 16 15 13 12 11
7 4 4 3 6 11 15 13 11 10 10 9 7 7 7 7 8 9 8 9 9 8 9 9 9 9 9 9 9 7 6 8 5 7 6 7 6 9 8 6 8 6 7 8 7 7 6 7 10 6 7 7 6 6 10 17 16 13 12 13 13 11 11 7 9 12 10 10 9 12 13 14 16 17 17 17 17 17 17 17 16 15 12 11 10
7 7 6 3 8 12 12 12 10 13 11 8 7 8 8 6 6 7 8 9 9 9 8 8 9 9 10 9 9 9 8 9 8 6 6 8 7 8 7 6 7 7 8 6 6 7 7 3 3 11 5 12 11 8 10 11 12 16 16 12 8 10 17 20 14 13 12 10 11 13 10 11 13 15 15 16 15 15 16 16 16 15 12 11 12
7 8 6 6 4 10 15 14 15 17 15 10 9 9 9 7 8 8 8 8 7 8 8 9 9 10 10 9 9 10 10 10 11 11 10 8 8 6 7 7 5 7 7 6 6 7 6 6 4 2 8 5 7 12 10 6 7 7 14 20 19 7 10 13 20 15 9 10 4 6 9 11 12 13 14 15 14 14 15 15 14 14 13 13 15
7 8 10 10 12 12 10 11 13 15 16 11 8 10 10 10 8 9 9 9 9 8 7 8 8 10 11 11 11 12 13 12 12 11 11 11 7 7 4 6 5 6 5 5 6 7 5 4 4 6 5 7 9 5 8 8 10 6 8 9 18 23 19 12 7 17 14 9 14 16 12 13 12 13 12 11 11 14 15 13 13 14 13 15 16
7 10 11 9 6 10 16 15 13 13 12 10 9 9 10 10 11 12 12 12 12 11 9 8 7 8 8 10 11 12 12 12 11 11 9 10 11 9 4 5 5 6 4 5 6 5 4 4 5 3 6 8 7 11 15 11 12 15 14 6 10 10 16 20 12 6 6 10 11 14 16 15 18 16 15 16 15 14 12 11 10 12 15 16 17
12 15 14 12 16 19 17 15 12 11 9 8 9 12 10 10 10 10 9 9 9 10 10 8 6 7 9 10 11 14 14 13 12 11 10 9 7 9 11 8 6 5 4 4 4 3 3 3 4 5 9 10 9 7 7 6 7 6 10 9 14 13 9 10 14 8 4 7 15 17 14 11 13 16 11 15 14 12 13 13 13 16 17 18 16
14 14 13 13 15 16 15 15 12 9 8 5 6 5 6 8 6 4 6 7 5 6 7 8 10 10 9 9 8 10 10 9 11 12 12 9 10 11 10 8 7 9 7 5 3 3 3 3 3 3 4 8 9 6 5 9 7 7 8 10 10 11 14 17 25 17 2 13 19 20 22 8 7 14 15 13 13 12 12 15 17 20 18 15 16
9 10 12 13 12 11 8 5 6 5 4 5 6 7 11 14 9 8 7 6 9 6 6 7 6 7 8 8 5 6 9 10 11 11 9 9 10 10 10 9 8 7 6 5 6 4 3 3 4 6 5 6 6 6 6 6 9 8 6 7 7 8 14 16 15 18 15 12 17 22 24 10 4 9 12 9 11 11 14 16 19 19 19 19 18
1 2 5 3 5 5 6 7 5 3 4 3 5 6 10 12 11 9 5 6 7 7 7 7 8 8 7 8 7 6 7 11 11 9 10 9 8 12 12 11 10 9 8 8 6 4 6 3 4 5 5 4 5 5 4 6 6 9 8 10 8 8 9 13 17 19 15 9 12 17 25 15 7 8 11 10 9 9 14 11 17 19 19 19 18
3 1 2 3 2 2 5 6 4 2 1 5 7 9 9 9 7 7 4 6 5 4 4 3 3 5 6 8 10 9 7 8 8 9 9 9 9 10 11 11 10 10 9 9 7 6 4 2 2 4 3 2 5 4 5 3 5 10 11 13 9 13 14 17 14 17 17 10 14 15 22 15 8 8 10 10 11 10 9 12 18 19 17 15 12
1 1 2 3 2 3 2 3 5 2 2 6 7 8 9 6 4 4 4 5 6 4 4 4 5 8 8 9 10 11 9 8 6 8 11 10 10 10 11 9 9 8 8 7 6 5 3 2 2 3 4 4 5 6 6 5 6 8 9 12 12 14 17 14 13 11 13 7 8 9 24 13 9 14 13 11 11 11 10 10 16 13 10 11 12
3 4 5 7 5 5 4 5 5 2 3 7 4 5 5 6 7 6 6 8 8 7 7 6 6 6 7 9 11 11 11 11 9 13 11 11 12 11 9 7 7 6 5 3 3 3 4 3 2 2 4 5 6 6 7 7 7 6 7 7 7 10 11 12 16 12 13 8 7 11 20 16 7 15 19 11 10 12 11 11 12 10 8 10 11
5 7 5 5 4 4 4 3 5 3 4 7 4 3 9 10 8 8 8 10 9 10 8 8 8 8 8 10 11 12 11 11 10 14 13 11 11 9 7 6 5 5 7 4 2 2 2 2 3 4 6 7 8 8 9 10 9 6 3 6 10 6 9 16 14 10 11 8 11 12 17 17 9 9 16 12 12 13 12 12 10 7 10 12 14
6 5 4 6 6 5 4 3 2 5 3 6 5 4 5 6 8 10 9 11 9 10 10 9 10 11 13 16 12 13 14 11 10 12 11 11 10 7 6 5 5 6 8 6 7 7 6 7 9 9 10 11 11 12 12 13 14 10 5 12 12 7 12 10 19 14 14 8 13 6 8 12 11 8 13 14 11 13 9 11 9 7 8 9 11
6 4 5 7 6 6 5 4 6 6 4 5 5 5 7 8 8 7 10 10 11 7 10 11 10 10 11 12 14 13 13 11 12 10 10 9 9 5 5 3 1 2 5 3 4 6 8 9 10 10 12 12 11 9 11 14 15 13 9 10 9 8 13 13 15 16 18 8 6 5 18 15 10 8 11 21 20 12 9 8 5 8 9 8 10
Wind_Speed
3 3 2 3 1 1 2 3 2 2 1 1 1 2 2 1 1 1 1 1 1 1 2 3 3 3 3 3 1 3 3 2 4 4 4 4 5 6 11 10 9 9 11 11 11 11 10 10 10 9 10 9 8 7 6 7 8 10 10 9 8 8 8 8 8 9 8 8 8 8 8 8 8 8 8 8 9 9 8 8 8 8 8 8 9
3 1 2 2 1 1 1 2 2 2 1 2 1 1 1 1 0 0 1 0 0 1 1 3 3 4 3 3 0 3 5 4 4 5 5 5 5 5 11 10 10 9 9 10 11 11 10 10 10 9 10 10 9 9 8 6 7 10 10 10 9 9 8 8 8 9 9 9 8 8 8 8 8 8 7 7 8 8 8 8 8 8 8 8 8
1 1 1 1 1 1 1 1 1 1 1 1 0 1 1 1 0 1 1 2 2 1 2 2 3 4 3 3 2 0 3 5 4 3 4 5 5 4 6 12 10 10 9 9 9 10 11 10 10 9 10 10 10 9 9 8 8 9 9 10 10 10 9 9 9 8 9 9 9 9 8 8 8 8 8 7 8 8 8 8 8 7 7 7 8
1 1 1 1 1 1 0 1 1 1 2 2 2 1 2 1 1 1 0 1 1 1 1 1 2 3 2 3 3 1 3 4 5 4 3 2 2 3 3 4 8 9 9 10 8 8 11 10 10 10 9 10 9 9 9 9 9 7 7 11 10 10 10 9 9 8 8 9 9 9 9 9 9 9 9 8 8 8 8 8 8 8 7 7 8
1 3 4 2 1 1 2 2 2 2 2 3 3 2 1 1 0 1 1 1 1 2 1 1 1 2 3 3 4 3 1 4 5 5 4 3 2 2 2 1 1 5 7 8 7 7 6 10 10 10 10 9 9 10 10 10 9 10 7 10 10 10 10 9 9 9 8 8 9 9 9 9 9 9 9 9 8 8 8 8 8 8 7 7 7
1 1 1 2 1 2 2 2 2 2 2 2 3 3 2 1 1 0 1 1 2 2 1 2 1 2 3 3 3 3 1 3 3 5 5 5 4 2 1 0 0 1 2 6 7 6 5 8 9 10 11 10 10 10 10 10 10 10 9 10 11 10 10 10 9 8 9 8 8 8 8 8 9 9 8 8 9 8 8 7 8 7 7 7 6
2 3 3 4 4 2 2 2 2 1 1 1 2 1 2 2 2 2 0 2 3 4 3 3 2 3 3 3 3 3 3 2 2 3 5 5 5 3 3 2 2 1 0 1 4 6 6 6 8 9 11 10 10 10 10 10 11 10 10 11 10 10 10 10 10 9 8 8 8 8 8 8 8 8 9 8 8 8 8 8 8 8 7 6 6
6 5 4 4 3 2 2 2 2 1 1 0 1 2 1 2 1 1 0 2 2 3 3 3 2 3 2 3 3 2 4 4 2 1 0 3 4 4 3 3 3 2 2 2 1 2 6 6 6 7 8 11 11 10 11 10 11 11 11 11 10 9 9 10 10 10 9 9 9 8 8 8 8 8 8 8 8 8 8 8 8 8 8 7 7
4 5 5 5 2 1 2 3 3 2 1 1 1 1 2 2 1 2 1 2 2 3 2 2 2 1 2 2 2 3 4 4 3 3 3 3 3 3 3 3 3 4 4 3 3 2 3 6 6 7 7 9 10 10 11 11 12 12 12 12 11 10 9 10 11 11 11 10 10 9 9 9 9 9 9 9 9 9 8 8 8 8 8 8 7
2 2 2 3 3 2 2 3 3 2 2 1 1 1 1 2 3 3 2 2 2 3 3 2 2 2 2 3 2 3 3 4 4 3 4 3 2 3 3 3 3 5 5 4 5 4 3 4 6 6 7 8 8 10 11 12 12 13 12 12 12 11 11 10 11 11 11 11 11 10 10 10 9 9 9 10 10 9 9 9 8 9 9 8 8
3 3 3 3 2 2 3 2 2 2 2 2 2 2 2 0 2 2 2 2 2 1 2 3 2 2 2 2 2 2 2 2 3 4 4 3 3 2 2 1 3 3 4 5 5 5 5 4 4 4 4 6 8 9 11 11 12 12 13 13 13 13 13 12 12 11 13 12 12 11 11 10 10 10 10 10 10 10 10 10 9 9 9 8 8
2 2 2 3 2 2 2 1 1 2 2 2 2 3 3 1 1 3 3 2 2 2 2 3 2 3 0 0 1 1 3 1 2 2 1 1 0 1 2 0 1 2 3 3 4 4 5 5 5 5 4 5 7 7 9 9 8 10 13 14 13 13 13 14 13 13 12 14 13 12 11 11 11 11 11 11 10 11 11 10 10 10 9 9 9
1 1 2 3 2 2 2 2 1 2 2 2 3 4 2 0 1 2 2 1 1 1 1 2 3 1 2 2 1 1 2 3 1 0 1 1 1 1 0 1 1 2 3 3 3 3 4 5 6 5 5 5 5 6 7 9 9 8 11 13 14 14 14 14 14 13 12 14 14 13 12 12 12 12 12 12 12 11 11 11 11 11 10 10 9
1 1 2 4 3 2 3 3 2 1 2 1 2 2 2 0 1 2 1 1 1 1 1 1 0 3 1 1 2 3 1 2 2 0 1 1 2 2 2 1 1 0 1 2 3 3 4 5 5 6 5 5 5 5 5 6 8 10 8 10 14 14 13 14 14 14 13 13 13 14 13 13 13 13 13 13 13 12 12 12 12 12 11 11 11
2 1 2 3 3 2 2 3 3 3 1 1 1 2 2 2 1 2 1 1 0 1 2 1 2 1 1 2 1 1 1 2 2 4 2 1 1 2 2 2 2 1 1 2 3 4 5 5 5 5 4 4 5 6 6 6 7 10 10 10 13 14 14 13 14 15 14 13 13 14 14 14 14 13 13 13 13 14 13 13 12 12 12 12 12
2 2 4 4 4 3 2 3 3 3 3 2 2 2 2 2 2 2 3 3 1 1 0 1 1 3 1 0 1 2 0 0 1 2 2 1 1 1 1 2 2 1 2 2 1 1 4 5 5 4 4 4 4 5 6 6 10 12 13 12 12 12 16 15 15 16 16 15 14 15 14 15 14 14 13 13 13 14 14 13 14 13 12 12 12
3 3 4 5 4 4 4 3 3 2 3 3 2 2 2 2 2 2 2 2 2 1 2 2 2 1 3 2 2 1 2 1 0 0 1 1 2 1 0 1 1 1 0 1 1 3 3 3 1 2 2 2 3 4 5 6 7 8 10 13 13 12 14 17 17 17 18 17 18 17 16 16 16 16 14 13 13 13 14 14 14 14 13 13 13
3 4 3 4 4 4 4 4 3 3 3 2 2 1 0 0 1 2 2 1 2 1 2 3 3 4 3 1 1 1 1 1 1 0 1 1 1 2 2 2 2 2 2 2 2 3 3 3 3 2 2 3 3 4 4 4 4 5 4 6 10 10 12 14 17 18 18 19 18 18 17 16 16 15 15 13 13 13 14 14 14 15 15 14 13
4 4 4 4 4 4 5 4 3 3 2 3 3 2 2 1 1 2 2 4 4 2 2 1 2 4 4 3 3 1 1 2 1 1 1 2 1 2 1 2 2 2 3 3 4 5 4 5 7 7 6 7 7 6 5 1 4 4 5 10 10 11 14 15 15 15 17 17 16 18 17 14 13 15 16 15 15 16 16 16 16 16 16 15 15
4 4 4 4 5 5 5 4 4 3 3 3 3 1 2 3 2 3 2 2 5 6 3 1 3 1 3 3 3 4 4 4 2 1 3 2 2 3 1 3 3 3 3 4 3 3 2 2 4 4 6 7 5 6 6 3 0 1 4 7 9 10 9 9 11 13 17 15 17 14 13 16 14 14 16 16 15 16 17 17 17 16 16 16 16
3 4 3 4 4 5 4 5 4 4 3 5 3 3 3 3 3 4 4 4 3 3 4 4 3 3 3 2 3 3 2 3 2 2 2 2 1 1 3 4 3 4 5 4 3 3 2 3 2 4 4 3 4 3 4 4 3 5 3 7 5 4 8 10 10 11 14 13 10 11 12 14 16 17 14 16 15 14 15 17 16 16 16 16 16
3 3 4 3 5 5 5 4 4 4 4 4 4 4 4 4 3 4 3 5 3 3 4 3 3 2 2 3 2 1 3 3 4 3 3 2 3 0 0 3 4 3 5 8 6 4 3 3 4 3 1 0 2 3 4 3 1 1 7 10 6 5 4 5 8 10 10 5 3 2 6 8 14 15 17 16 17 19 17 17 17 18 18 17 18
2 2 3 4 4 4 4 4 3 3 3 4 4 4 4 4 4 4 5 5 4 5 6 4 4 5 4 4 5 3 2 2 1 3 2 2 2 3 1 1 0 3 7 5 7 6 5 5 6 7 6 5 4 2 3 2 2 5 9 9 8 7 7 8 9 10 6 5 9 8 13 17 16 16 14 12 14 15 18 20 19 19 19 18 20
1 3 3 3 4 4 3 3 3 4 4 3 3 4 3 4 5 5 4 4 4 6 5 6 5 6 5 4 5 4 5 4 2 2 4 2 3 2 1 3 2 1 2 3 5 7 7 7 6 5 5 6 6 6 5 4 4 8 8 9 9 9 8 9 11 11 7 6 8 9 10 11 12 12 12 13 13 15 17 18 19 19 20 20 20
2 4 3 4 4 5 4 4 3 3 3 4 3 4 4 5 5 5 5 5 4 5 6 4 5 6 5 3 5 5 5 2 3 4 4 4 5 4 2 2 2 2 2 2 2 2 5 6 5 5 6 7 6 7 6 6 6 9 9 5 8 8 9 6 5 9 10 7 7 7 6 5 7 14 17 16 16 14 14 13 12 9 14 15 17
4 4 4 3 4 4 4 3 3 3 3 4 4 3 4 5 4 5 5 3 4 6 6 4 5 4 3 7 6 6 5 4 4 5 4 4 4 2 1 3 2 2 2 4 3 3 3 3 4 5 6 7 6 6 6 6 7 12 13 8 8 10 9 10 11 7 7 5 5 7 6 5 6 7 10 11 10 8 9 13 14 12 12 14 16
5 2 1 2 4 4 4 4 4 4 4 4 3 4 4 4 4 4 3 3 5 6 5 5 6 5 5 5 5 5 4 4 5 5 3 3 3 1 2 1 2 4 3 2 2 5 1 1 3 7 7 6 6 6 7 6 9 14 11 7 6 8 7 5 6 7 7 5 3 5 6 7 7 7 9 10 10 9 8 9 11 11 13 15 15
3 1 0 1 3 3 3 4 3 4 4 4 4 4 4 5 3 4 4 2 6 5 4 5 5 5 4 4 6 4 3 4 4 4 5 4 4 4 5 4 4 2 3 4 4 2 2 3 1 5 7 7 6 6 7 9 9 12 11 7 7 8 13 14 13 12 11 10 10 9 7 6 7 8 9 9 10 10 10 10 10 11 12 13 15
4 2 2 1 1 2 3 3 3 4 4 4 4 3 3 4 4 4 4 3 5 4 4 5 3 4 4 4 5 4 3 3 4 4 3 4 4 3 3 6 4 5 2 3 2 2 4 4 5 4 6 6 7 6 8 7 9 10 7 7 7 7 11 13 13 12 13 13 11 10 10 10 9 8 9 10 9 10 10 10 9 9 10 11 13
3 2 3 2 1 1 2 2 2 3 4 4 4 4 4 4 4 3 3 3 4 3 4 5 4 4 4 4 4 5 3 5 5 3 4 4 5 5 6 4 4 6 2 3 1 1 2 4 4 4 6 7 6 7 6 7 10 10 7 7 7 7 12 12 13 13 14 14 13 12 11 10 10 10 9 9 9 10 10 11 11 10 9 10 11
2 2 2 2 2 2 2 3 1 2 2 3 4 4 3 4 2 3 2 3 4 4 2 4 3 4 4 4 4 4 4 5 5 5 5 6 6 6 6 6 6 4 4 2 2 2 1 3 3 3 4 6 5 5 6 6 9 10 7 7 7 11 12 10 15 15 16 16 15 14 12 11 10 11 10 9 10 10 11 11 11 12 11 10 10
2 1 1 2 3 3 3 3 3 2 2 2 4 4 3 3 3 3 2 3 4 4 3 2 3 4 4 4 4 4 3 5 5 5 5 5 5 6 6 6 6 4 4 3 4 2 2 1 3 4 5 6 5 8 7 7 8 12 6 7 9 10 8 8 12 15 17 18 17 16 16 15 14 13 12 10 10 9 10 10 10 10 10 10 10
4 4 3 3 3 3 2 3 4 4 4 3 3 3 4 3 3 3 3 2 4 2 3 3 2 4 4 4 3 2 2 6 4 4 5 4 5 6 5 6 6 5 5 4 5 4 3 0 2 5 5 6 6 7 8 7 8 8 8 6 7 7 7 7 7 12 17 16 17 17 17 18 18 17 16 15 13 12 11 10 10 10 10 10 10
1 3 4 3 3 2 2 3 4 4 4 4 3 3 4 3 3 2 4 3 3 3 2 3 3 3 4 5 3 3 3 5 4 4 4 4 5 6 5 6 6 5 3 5 3 3 4 3 5 4 5 5 5 7 8 9 9 6 7 7 6 6 6 7 7 7 15 14 15 16 16 18 18 17 17 16 15 14 13 11 10 10 10 10 10
1 1 2 2 3 3 3 4 4 4 4 4 3 4 4 4 5 4 3 4 4 4 4 4 4 3 4 4 4 4 3 5 4 4 4 5 4 6 4 4 6 4 3 4 4 4 5 4 2 6 6 5 5 7 7 5 5 5 6 7 6 5 6 6 6 5 10 12 13 14 14 15 15 16 16 16 16 15 15 13 12 11 10 9 9
2 1 0 1 3 3 3 3 5 5 5 5 4 4 5 4 5 5 4 4 4 4 5 5 4 4 4 4 4 4 4 5 4 4 3 4 5 5 5 4 5 4 3 4 4 3 1 3 4 4 4 6 4 4 6 5 6 6 5 5 4 5 5 6 6 6 8 10 11 12 13 13 13 14 14 14 15 15 15 15 14 13 11 10 9
4 3 2 1 1 2 5 6 6 6 6 4 4 4 4 4 4 5 5 5 5 5 5 5 6 5 4 5 5 4 4 5 3 4 4 4 4 5 5 3 5 4 4 5 4 4 4 4 4 2 3 3 2 3 5 8 8 6 5 6 5 5 5 4 5 6 8 8 7 10 10 11 13 13 13 13 12 12 13 14 13 13 11 9 9
5 4 3 2 2 2 3 3 5 8 7 5 5 5 5 4 4 4 4 5 5 6 5 5 5 5 6 6 5 5 5 5 5 4 4 5 4 4 4 3 4 4 4 3 4 4 4 2 1 4 3 5 4 2 5 6 7 8 8 6 3 4 8 9 6 5 5 4 4 5 7 8 10 12 12 12 12 11 12 12 12 12 11 10 11
3 4 3 3 2 3 4 3 6 9 10 7 6 6 6 4 4 4 4 4 4 4 5 5 5 6 6 6 6 6 6 6 6 6 5 4 4 4 4 4 3 4 4 3 3 4 4 3 1 1 3 1 3 5 4 4 4 3 7 10 9 3 5 7 10 7 4 4 3 5 7 8 10 9 11 11 11 11 12 12 11 11 11 12 13
3 2 3 4 4 4 4 3 6 8 10 8 6 6 6 6 5 5 5 5 5 5 5 5 5 6 6 6 7 8 8 7 7 6 6 6 4 4 2 3 3 4 3 3 4 4 3 2 1 2 2 2 4 1 3 3 4 1 4 4 9 12 10 6 3 9 6 4 6 6 6 8 7 8 8 8 9 11 12 10 10 11 12 13 14
4 5 5 3 3 5 5 4 5 7 8 7 5 6 6 6 5 6 7 7 7 6 6 5 5 5 5 6 6 7 7 9 10 8 7 7 6 5 3 3 3 3 3 3 3 3 2 2 2 1 2 4 3 5 7 5 6 7 5 3 3 4 8 10 6 3 2 5 6 7 8 7 9 8 7 7 7 9 8 9 8 10 13 13 14
3 3 3 1 4 6 6 7 7 7 6 4 5 7 4 2 3 4 4 4 5 5 6 5 4 4 6 6 7 11 12 11 10 10 9 8 6 6 6 5 4 3 2 2 3 2 2 2 2 2 5 5 4 3 2 2 3 3 6 5 6 7 5 5 7 1 2 4 7 9 7 5 7 8 6 7 6 6 6 6 7 10 12 13 12
3 4 3 4 7 9 9 9 8 5 3 2 4 3 3 6 4 3 5 4 3 4 4 5 6 6 5 6 5 7 7 7 8 11 10 8 9 9 8 7 5 5 4 3 2 2 1 1 1 0 2 4 4 2 2 3 2 3 4 4 5 6 6 8 11 6 1 7 9 10 11 5 4 7 7 7 7 6 6 7 13 15 14 12 12
6 6 8 9 8 7 6 4 4 3 3 3 5 5 10 10 5 3 3 2 6 4 4 4 4 4 5 5 3 3 4 6 7 7 7 8 8 9 9 8 8 7 5 3 3 2 2 1 2 3 2 3 3 3 2 3 4 3 3 3 3 4 7 7 6 8 5 7 9 10 12 5 3 5 6 5 6 6 7 11 15 15 15 14 14
0 1 2 2 3 3 4 4 3 3 3 3 4 4 8 10 9 6 4 4 4 5 4 4 4 4 3 4 3 3 4 8 7 6 6 6 6 9 10 10 9 8 8 7 5 2 3 2 2 2 2 1 2 1 0 1 1 4 4 5 4 4 4 6 8 9 8 5 6 8 12 7 4 4 6 6 5 5 7 9 14 16 14 13 12
2 0 0 0 1 2 3 4 3 1 0 4 6 6 7 8 5 5 3 4 4 3 3 2 2 3 3 5 6 5 4 5 5 5 5 6 5 6 6 6 6 7 8 8 6 6 3 1 1 1 1 1 2 2 2 1 2 4 5 6 4 6 6 8 7 9 9 6 7 6 9 7 4 5 6 6 6 6 6 9 14 15 12 11 9
0 0 1 2 1 1 1 2 3 1 1 5 6 6 8 5 2 4 2 3 3 2 2 2 3 4 4 5 6 6 5 5 3 5 7 6 6 5 6 6 5 4 4 4 4 3 2 1 1 1 2 2 3 3 3 3 3 4 4 6 6 7 8 7 6 6 7 4 5 3 8 6 5 7 7 6 6 6 6 8 13 11 9 9 10
2 2 3 4 3 3 2 3 3 1 2 6 4 5 4 3 5 3 3 4 4 4 4 4 3 3 4 5 6 6 6 7 6 11 8 7 7 7 5 3 3 2 3 2 2 2 1 1 1 1 2 3 4 3 3 4 4 3 3 3 4 4 5 5 6 5 4 4 4 6 7 7 3 6 8 6 6 6 6 6 10 9 7 8 9
3 4 3 3 3 3 2 2 3 1 2 4 3 1 4 8 6 5 4 6 5 6 5 4 5 5 4 6 7 7 7 6 7 11 11 9 6 5 4 3 3 3 3 2 1 1 1 2 3 4 5 6 6 7 7 8 6 4 2 4 6 3 6 8 7 4 5 3 4 5 6 7 4 4 7 6 6 7 6 7 6 6 8 9 11
4 3 2 4 4 3 3 2 1 2 2 4 4 3 4 4 5 5 5 6 5 5 5 5 5 6 7 11 9 8 8 6 8 10 9 8 6 5 4 3 3 4 4 3 4 3 4 5 6 6 7 8 8 9 9 10 11 7 3 6 6 4 6 5 9 6 6 3 5 2 2 5 6 3 6 6 5 4 5 6 5 4 7 8 9
4 2 3 4 4 4 3 3 4 3 2 4 4 4 5 6 5 4 6 6 6 4 5 6 5 5 6 7 10 9 8 8 10 9 9 7 5 3 3 2 1 1 2 2 2 3 4 5 5 6 7 8 6 5 6 11 11 9 4 5 5 5 6 6 7 8 8 2 3 3 8 6 5 4 5 7 7 4 5 5 3 5 6 5 6
Wind_Direction
171 190 171 211 179 99 149 160 156 143 122 141 168 178 205 223 322 325 152 179 179 285 306 309 320 321 317 326 143 158 205 224 202 177 198 211 212 209 196 197 195 196 190 190 190 190 190 181 183 189 175 181 174 166 177 157 167 159 151 146 145 144 142 143 140 139 140 138 139 138 132 128 126 119 119 122 119 112 104 101 99 103 99 95 91
182 167 176 209 136 111 170 168 136 124 135 209 260 109 132 62 42 15 42 48 58 293 317 316 332 317 333 344 199 183 174 190 204 182 187 201 209 217 201 197 196 197 193 192 197 196 185 185 190 194 185 186 180 175 184 186 175 163 156 150 150 151 152 150 153 153 152 151 147 143 140 135 130 128 122 117 118 118 116 110 104 97 94 96 98
128 153 201 169 112 122 199 66 77 85 122 138 80 105 72 78 85 11 22 14 5 356 357 330 324 305 340 355 350 233 187 178 195 178 180 202 212 211 209 200 197 198 192 193 202 201 189 187 194 199 191 193 190 186 182 183 189 177 178 159 157 158 157 160 159 161 158 156 156 151 147 146 141 137 137 135 129 124 118 116 113 110 103 100 100
59 165 165 110 110 111 58 69 63 63 120 141 104 103 111 93 45 20 23 87 351 341 318 297 304 299 341 10 342 24 184 181 169 174 171 221 243 227 230 216 206 202 199 193 202 213 191 193 195 196 199 200 199 192 188 187 197 203 203 166 162 163 160 164 165 166 166 165 164 161 158 155 152 150 146 145 139 135 130 129 126 122 117 111 105
340 352 18 27 96 121 108 110 149 148 120 130 124 124 85 42 354 354 333 37 34 9 34 97 307 344 16 10 2 346 168 178 168 160 159 172 215 231 236 223 229 224 217 198 208 219 207 192 200 195 196 202 206 203 196 194 194 201 198 172 169 167 166 168 172 170 170 172 170 167 165 162 160 156 155 151 147 143 141 135 132 127 129 126 120
275 34 40 318 293 177 149 133 152 157 147 138 127 145 129 117 245 342 331 37 24 347 93 75 359 30 25 355 10 344 29 164 174 168 158 169 173 182 194 165 191 254 256 226 208 219 232 197 205 200 198 201 205 210 207 200 191 196 214 180 179 175 173 171 174 176 173 174 176 175 171 167 167 162 157 155 153 151 146 142 137 138 132 128 127
192 195 189 222 218 192 156 138 142 154 137 171 131 124 129 167 198 207 358 54 55 42 55 65 20 41 20 352 7 354 34 65 135 180 179 163 150 157 149 153 161 146 210 316 258 221 221 210 207 213 205 203 203 205 216 207 196 201 218 178 173 191 190 173 174 177 180 177 177 179 176 174 171 168 166 163 160 156 155 152 148 142 141 137 134
189 193 177 186 225 182 167 142 137 117 101 52 113 135 166 183 223 66 47 49 89 56 63 92 50 31 13 10 358 16 50 54 61 135 55 133 143 153 165 171 166 167 191 193 252 264 229 216 218 222 215 209 206 204 208 208 206 200 210 214 192 193 203 188 178 178 182 182 182 182 182 184 179 177 172 168 166 164 161 160 157 155 149 145 145
187 184 146 150 163 166 168 144 139 142 129 140 193 213 194 161 75 57 105 124 98 104 66 87 105 44 34 34 358 18 55 48 57 74 97 110 135 150 170 193 186 175 191 197 203 219 254 242 226 232 228 218 214 211 210 208 208 199 205 218 211 205 216 209 191 183 183 183 188 188 187 187 184 183 178 175 175 173 171 169 165 162 157 155 152
175 146 129 138 184 158 151 148 144 127 89 196 233 251 230 145 113 98 112 106 106 107 113 120 107 99 65 55 14 23 30 45 51 67 94 107 125 167 199 198 193 202 209 192 199 191 209 241 241 244 239 229 219 210 218 214 212 207 201 210 217 205 211 211 199 198 191 186 188 191 192 188 187 190 186 184 183 181 180 177 172 169 167 164 160
173 156 137 136 140 156 152 156 129 136 146 173 211 241 251 148 117 98 63 96 124 156 149 129 105 89 72 52 43 45 28 41 49 69 76 100 112 128 148 199 213 216 215 208 198 195 196 209 224 227 237 240 233 220 220 225 223 213 207 207 209 212 205 210 216 207 207 197 190 190 193 191 191 196 192 190 188 188 188 183 179 176 173 172 170
181 141 117 109 137 140 122 99 102 132 158 182 219 243 232 210 93 105 95 51 21 68 106 104 88 74 41 357 61 89 87 23 35 54 28 31 35 82 73 122 140 206 204 211 209 202 194 202 216 219 211 227 236 233 229 225 240 234 215 213 211 209 212 207 212 213 213 207 194 192 193 193 194 197 197 194 195 195 194 189 186 183 179 180 178
124 118 133 142 106 102 125 142 154 170 183 219 231 252 274 211 117 107 123 114 146 40 65 79 87 346 7 21 17 18 145 130 108 326 305 294 310 328 332 24 97 152 214 200 216 217 198 204 214 211 214 206 219 229 235 231 228 245 237 220 218 211 210 212 212 214 216 215 203 198 194 195 194 199 200 198 199 198 198 195 192 187 184 184 183
112 156 150 107 116 139 160 160 163 188 232 247 249 262 270 297 116 83 39 132 184 192 237 99 65 162 189 298 354 356 31 55 93 21 301 290 280 300 300 284 307 42 120 180 219 232 231 227 223 219 211 207 202 196 215 232 230 229 240 238 223 220 215 211 212 214 215 216 211 208 193 197 198 200 201 203 201 202 202 198 197 195 190 189 189
78 134 122 120 139 148 153 152 165 183 174 175 211 231 236 230 175 149 90 33 68 247 215 170 178 148 131 96 314 81 326 6 359 37 15 286 259 244 271 299 289 6 87 145 190 224 231 229 226 227 221 216 208 200 199 209 218 223 227 235 229 222 221 213 210 212 212 214 214 214 196 198 200 201 204 207 206 205 204 201 201 200 196 196 195
53 87 94 94 118 138 143 133 156 168 151 174 198 220 222 212 207 192 141 140 192 104 6 164 132 116 72 9 179 118 38 332 338 310 327 324 57 91 228 228 289 344 2 61 109 195 227 217 233 232 224 225 230 222 210 205 212 214 220 223 229 222 221 218 212 210 210 211 213 218 203 200 204 204 207 209 211 210 207 203 201 202 203 202 200
66 74 88 96 96 114 122 132 133 123 135 140 181 225 218 183 151 125 143 154 168 136 52 35 101 114 138 107 25 23 210 228 102 294 327 357 351 19 36 35 7 358 331 322 53 48 38 62 25 327 307 302 278 256 246 231 213 215 217 221 223 224 221 222 217 215 212 210 213 215 213 207 210 212 211 211 214 214 213 210 204 203 204 205 206
67 75 85 99 93 95 108 111 93 70 77 109 125 82 50 91 194 147 129 186 141 56 88 35 64 71 91 139 170 172 191 214 115 183 310 226 311 329 357 360 354 6 355 332 3 60 63 77 21 13 346 301 276 279 267 276 309 309 292 256 237 237 234 229 228 225 220 217 215 214 215 213 213 215 217 213 211 211 215 216 211 208 207 207 208
83 96 103 101 100 92 94 94 93 81 69 65 63 76 101 124 148 134 160 137 105 110 115 88 37 65 72 66 74 72 141 129 166 88 40 314 359 19 343 327 341 11 360 353 356 16 28 53 40 25 26 17 355 320 286 284 241 229 342 8 11 343 323 302 281 257 238 229 228 225 220 227 224 215 215 215 209 207 209 212 213 212 210 210 209
101 95 110 114 108 98 98 97 95 104 98 83 88 67 92 66 89 115 103 106 133 131 147 170 143 87 55 59 54 58 56 64 98 155 155 129 333 327 297 342 356 12 353 343 356 15 352 101 124 60 27 360 337 350 355 2 33 134 148 184 185 181 204 244 278 296 298 273 242 236 243 237 230 230 222 216 213 214 213 213 215 215 214 213 213
68 109 114 119 111 112 102 96 96 96 93 84 66 60 67 78 70 77 79 69 92 136 132 182 154 138 114 50 48 44 50 73 74 81 122 108 306 359 323 327 26 33 10 343 342 354 19 290 67 95 69 300 322 335 317 324 15 356 318 270 273 216 203 221 226 242 257 271 296 284 252 243 234 246 247 224 223 229 225 224 221 221 219 216 213
53 85 106 105 109 103 97 98 106 105 92 103 94 69 58 63 56 71 68 72 39 77 99 106 93 83 99 141 95 23 35 32 28 60 57 75 142 30 323 42 49 330 1 13 6 12 18 355 17 52 130 232 290 276 259 266 276 165 259 262 245 230 250 266 274 273 266 301 338 249 279 278 274 252 241 247 227 219 222 227 228 229 226 220 217
79 65 94 112 100 101 109 111 98 93 103 98 95 101 93 89 86 77 68 79 71 75 73 67 86 81 66 77 98 102 126 114 55 45 105 101 53 13 329 344 91 21 9 2 19 34 42 28 19 20 5 344 308 276 277 298 266 287 283 280 293 316 326 318 293 271 271 229 224 227 222 234 233 243 251 242 247 243 226 223 221 225 229 229 225
75 99 92 106 107 96 92 84 90 91 86 100 101 97 93 90 77 79 80 80 78 76 74 70 68 71 59 57 73 80 66 93 140 119 94 125 119 132 26 332 21 46 324 357 42 57 56 53 40 39 28 23 14 7 1 329 307 306 305 310 318 324 334 339 319 302 293 241 238 227 238 242 242 259 253 248 241 242 251 248 237 226 228 226 227
162 123 145 131 126 115 112 113 103 107 111 90 83 81 79 75 79 73 72 70 77 84 78 73 78 82 86 58 74 64 60 46 95 94 66 97 96 76 27 61 98 356 330 26 13 353 66 59 53 34 27 24 18 15 16 31 25 8 358 324 342 323 341 332 311 311 291 277 245 247 260 261 240 238 250 252 252 258 265 267 271 248 237 239 240
183 172 179 142 116 124 122 114 117 114 105 99 91 86 85 85 82 81 77 84 79 81 90 84 73 71 78 71 53 60 49 41 71 74 78 62 46 53 42 18 67 37 303 24 340 51 348 32 37 41 31 29 18 14 20 21 33 23 28 22 6 357 343 333 335 319 280 262 258 276 275 282 270 267 275 280 282 280 253 248 248 238 232 241 240
197 211 118 117 121 114 118 117 119 116 108 97 87 81 83 77 75 83 74 70 80 86 83 91 83 77 66 83 79 55 47 33 57 56 70 86 118 121 113 105 8 25 23 343 354 69 310 286 39 38 31 18 17 18 17 23 22 22 30 31 30 32 34 342 324 335 338 322 264 250 268 283 285 276 274 276 280 275 269 262 258 250 232 233 237
220 176 77 101 119 113 103 117 115 113 112 117 113 106 101 97 79 79 70 53 85 80 93 89 92 91 97 84 73 62 50 53 55 59 56 70 83 87 82 80 122 91 360 25 10 6 8 35 326 41 27 16 9 13 12 21 20 11 18 16 12 4 2 2 1 357 348 338 329 320 305 271 264 269 266 269 270 272 269 257 256 256 248 241 242
193 159 143 85 103 121 129 131 121 121 122 128 128 127 127 115 117 105 100 86 85 97 96 90 98 101 83 82 99 80 50 72 62 64 72 59 60 73 73 88 112 109 38 30 337 355 337 24 38 343 20 13 11 9 16 17 10 12 11 8 4 360 354 353 355 352 349 345 337 327 317 310 298 289 286 284 282 281 279 277 262 250 255 254 248
185 163 140 137 160 138 147 176 167 134 144 150 147 151 135 129 142 137 146 119 101 93 104 114 119 100 95 66 67 61 41 58 60 61 61 69 62 57 57 53 82 93 138 82 328 245 320 330 34 2 356 6 8 11 16 4 5 9 4 2 359 355 349 353 355 354 351 347 342 336 328 315 307 300 293 287 288 290 289 287 288 278 255 249 248
187 154 137 154 173 180 182 201 210 191 154 160 154 151 140 130 142 139 146 115 113 115 120 117 143 110 100 88 81 80 70 73 63 58 54 59 69 74 67 62 45 81 113 119 61 294 144 3 325 358 2 349 4 9 7 5 3 5 3 0 358 352 1 359 1 1 1 357 354 347 342 332 318 313 311 309 307 304 302 301 298 296 291 277 257
202 150 158 183 194 193 208 207 211 213 190 187 172 160 148 152 153 148 181 137 136 146 137 100 123 113 109 93 88 101 98 86 72 68 73 65 75 71 66 70 59 52 84 94 91 312 279 35 331 335 13 356 1 15 10 6 4 7 7 8 2 7 17 7 4 7 9 6 5 4 4 0 354 348 347 341 332 323 318 313 307 303 298 289 279
182 179 183 204 215 221 219 226 215 211 218 204 194 160 158 172 189 172 162 165 158 181 145 128 108 116 113 109 96 87 105 89 92 87 83 90 84 81 77 73 61 40 65 71 40 342 311 297 1 0 346 5 11 12 14 9 6 1 8 16 11 17 18 9 359 6 10 10 14 16 18 18 16 13 6 359 352 344 336 327 319 312 305 299 293
203 194 201 209 216 209 235 250 251 241 223 226 190 162 169 177 209 184 168 179 170 175 164 168 169 155 145 138 147 118 107 105 104 97 112 96 91 81 67 85 77 59 35 73 53 38 328 329 7 354 10 6 18 11 17 4 358 356 11 10 9 17 18 5 1 0 7 16 19 20 21 18 17 16 13 8 2 354 347 340 333 325 316 310 304
60 30 353 324 281 256 227 232 237 249 249 243 213 187 194 186 189 204 193 186 182 176 188 202 189 163 146 157 173 162 140 100 103 124 117 108 103 99 101 97 93 83 57 74 70 25 358 325 351 4 10 358 20 1 10 2 352 350 5 7 0 5 12 6 0 357 1 16 15 17 17 15 13 10 9 6 5 5 3 0 357 352 342 332 322
95 100 103 288 301 305 304 304 285 263 241 232 220 215 212 198 196 197 194 198 202 195 195 199 189 178 181 174 196 175 147 124 139 119 108 107 103 106 95 88 92 88 87 82 83 106 96 1 326 10 2 1 351 358 359 358 3 1 7 347 352 8 4 5 1 355 354 7 10 12 10 9 7 3 3 1 360 1 3 2 1 0 0 357 348
129 101 70 82 210 270 276 271 263 256 254 254 245 238 234 216 209 203 199 200 202 205 205 200 193 187 187 194 193 180 157 135 156 140 145 118 129 114 114 113 106 117 89 86 87 81 74 28 317 307 10 354 342 344 11 359 349 352 356 0 350 354 357 3 352 348 342 357 2 7 5 1 359 354 353 353 352 353 355 354 354 356 359 1 357
109 120 129 181 196 191 242 271 291 286 272 249 234 240 241 230 221 221 217 210 210 205 207 206 199 193 188 199 187 178 171 162 182 174 153 143 137 128 129 130 128 112 101 96 97 92 86 85 318 329 7 11 351 357 4 3 350 342 345 346 347 2 358 350 357 349 340 351 348 359 356 355 351 345 344 342 341 344 346 343 344 344 350 357 356
159 162 168 168 189 219 244 247 253 257 259 243 226 229 238 232 223 225 229 230 224 217 216 210 207 198 196 190 183 183 185 182 173 176 169 154 146 145 141 137 127 101 98 105 99 84 84 53 357 19 323 325 31 332 349 352 329 350 354 341 343 12 9 353 334 338 339 337 356 354 346 342 338 338 335 335 335 337 336 334 334 335 339 345 341
178 196 200 203 220 222 231 208 226 234 242 234 218 222 225 224 217 224 226 227 229 228 225 218 208 206 201 196 191 190 191 189 181 178 162 154 139 131 155 120 115 94 104 107 77 86 78 76 67 312 339 315 338 290 297 335 347 28 49 10 332 332 337 344 321 323 325 352 342 341 340 338 333 329 331 329 331 332 331 331 332 332 334 332 329
214 210 214 173 199 242 246 247 251 247 240 231 216 212 218 224 211 227 229 224 222 224 226 224 211 209 212 206 204 200 198 191 189 171 165 154 148 142 177 123 115 106 105 83 101 90 78 66 355 325 339 334 316 339 345 10 7 323 329 2 303 298 315 322 320 276 296 342 336 332 335 342 329 331 330 329 327 329 325 327 323 323 324 323 324
260 279 290 290 256 262 259 254 241 237 239 246 258 259 273 300 268 252 248 242 233 227 229 228 217 208 212 213 216 207 199 190 174 155 145 146 142 149 163 150 138 121 124 117 99 106 90 22 314 346 342 320 315 332 324 304 301 319 334 342 330 319 314 292 295 265 335 10 335 327 324 326 320 314 322 319 317 324 320 325 318 317 317 319 319
226 247 222 218 220 229 226 227 233 235 248 274 309 10 341 271 263 241 235 246 249 242 232 222 219 215 218 216 223 212 193 161 149 147 143 127 108 115 131 146 158 148 139 116 152 160 141 195 215 285 252 281 294 297 295 301 346 342 317 325 318 327 340 340 325 324 70 8 338 324 313 324 301 305 311 310 310 315 313 312 313 314 314 316 322
205 193 194 201 203 211 221 234 245 262 272 302 319 253 249 250 233 233 249 233 251 237 235 229 230 216 214 207 190 168 163 152 133 122 107 107 121 122 118 114 104 89 104 142 151 135 157 183 259 252 219 257 265 307 304 0 323 329 312 322 315 328 322 316 295 293 308 9 328 316 300 320 291 285 292 291 302 304 304 305 307 306 310 320 328
61 171 227 223 221 209 204 217 239 257 245 302 312 272 243 251 239 216 235 235 239 243 239 231 230 219 189 156 123 101 111 117 114 116 120 99 89 96 92 87 74 66 58 55 55 115 154 147 207 260 214 221 290 276 6 311 322 317 316 314 304 287 271 279 288 297 304 331 306 294 299 315 319 288 294 295 283 291 299 302 301 303 313 321 323
62 20 338 293 77 191 197 202 181 115 300 329 319 287 268 256 250 208 204 204 228 243 247 219 183 168 154 144 128 111 99 100 117 123 112 110 103 80 66 57 59 52 55 53 50 47 69 138 178 242 262 154 246 238 271 244 293 292 301 293 297 295 289 279 287 290 295 301 281 290 288 304 306 303 287 287 290 293 288 286 293 300 317 312 320
117 356 357 359 61 70 63 100 104 57 321 322 303 283 272 276 171 149 104 97 90 77 55 87 111 126 128 126 120 115 105 88 78 118 107 101 96 88 73 58 59 60 61 56 57 75 81 110 158 201 248 226 222 250 264 260 240 251 256 268 281 280 283 296 293 269 283 266 270 295 285 314 311 304 294 294 294 289 288 293 286 299 306 312 318
34 32 26 19 32 72 85 102 93 41 320 344 328 288 256 169 134 97 100 99 96 84 68 52 61 73 97 102 100 91 83 76 71 89 100 105 92 87 85 81 65 59 67 36 68 83 126 162 176 208 240 252 265 264 270 270 268 264 275 291 301 287 298 303 298 305 291 284 276 275 283 292 296 291 298 296 294 289 288 285 289 293 291 297 312
69 64 61 60 33 46 50 67 107 87 348 351 29 163 164 139 108 102 101 101 94 80 58 44 39 50 68 93 97 94 84 75 79 89 93 94 94 93 91 72 50 25 2 346 16 156 181 250 253 261 266 272 277 279 278 276 270 266 257 323 298 305 328 311 301 307 287 310 277 261 279 294 286 284 293 290 290 289 284 277 276 284 287 311 329
55 32 45 67 48 49 71 50 53 73 10 359 57 115 139 124 122 119 115 105 87 83 74 51 55 58 67 87 95 96 96 95 93 91 91 92 90 91 87 70 31 9 336 342 354 336 342 337 339 343 330 326 329 326 320 316 314 318 322 294 283 322 297 292 297 305 300 299 273 249 255 257 285 272 285 280 285 265 265 261 264 287 305 315 306
77 48 51 61 50 41 50 75 68 83 48 13 42 111 118 118 115 107 104 96 93 67 76 73 53 65 58 67 91 101 105 112 102 97 93 95 105 116 122 103 72 346 273 291 317 327 336 343 333 349 335 334 333 325 312 310 306 304 282 262 281 282 283 289 291 304 310 256 261 314 306 301 311 281 283 307 298 252 243 266 289 296 296 287 295